This demonstration page uses our WeatherBlox Daily Observations layout. Learn more.

Left ArrowRight Arrow

30.21309, -93.2044

Hourly Observations for January 4, 2022

Temp ( °F °C ) Dew Point ( °F °C ) Humidity (%) Winds ( mph kmh ) Pressure ( in mb ) Visibility ( mi km ) Precip ( " mm )
12:15 am 00:15 Clear 33 0.8 28 -2.1 81 81 NNE 3 6 30.36 1028 10 16 0.00 0.00
12:35 am 00:35 Clear 34 1.1 26 -3.3 73 73 NE 5 7 30.35 1028 10 16 0.00 0.00
12:55 am 00:55 Clear 35 1.4 26 -3.5 70 70 NE 5 7 30.34 1027 10 16 0.00 0.00
1:15 am 01:15 Clear 35 1.6 26 -3.3 70 70 NE 5 7 30.34 1027 10 16 0.00 0.00
1:35 am 01:35 Clear 35 1.5 26 -3.1 72 72 Calm 30.34 1027 10 16 0.00 0.00
1:55 am 01:55 Clear 35 1.4 27 -3 73 73 Calm 30.34 1027 10 16 0.00 0.00
2:15 am 02:15 Clear 33 0.3 27 -2.6 81 81 Calm 30.34 1027 10 16 0.00 0.00
2:35 am 02:35 Clear 34 0.9 26 -3.1 75 75 Calm 30.35 1028 10 16 0.00 0.00
2:55 am 02:55 Clear 32 -0.1 28 -2.5 84 84 ESE 3 6 30.34 1027 10 16 0.00 0.00
3:15 am 03:15 Clear 32 -0.1 28 -2.2 86 86 Calm 30.34 1027 10 16 0.00 0.00
3:35 am 03:35 Clear 33 0.5 29 -1.8 85 85 Calm 30.34 1027 10 16 0.00 0.00
3:55 am 03:55 Clear 34 1 29 -1.4 84 84 Calm 30.34 1027 10 16 0.00 0.00
4:15 am 04:15 Clear 34 1.1 29 -1.6 82 82 Calm 30.34 1027 10 16 0.00 0.00
4:35 am 04:35 Clear 34 1.2 30 -1.2 84 84 E 3 6 30.32 1027 10 16 0.00 0.00
4:55 am 04:55 Clear 34 1.3 30 -1.3 83 83 E 3 6 30.32 1027 10 16 0.00 0.00
5:15 am 05:15 Clear 35 1.6 29 -1.4 81 81 E 5 7 30.31 1026 10 16 0.00 0.00
5:35 am 05:35 Clear 35 1.6 30 -1.2 82 82 E 5 7 30.31 1026 10 16 0.00 0.00
6:00 am 06:00 Mostly Clear 36 2 30 -1 81 81 Calm 30.31 1026 10 16 0.00 0.00
6:45 am 06:45 Mostly Cloudy 36 2 30 -1 81 81 Calm 30.32 1027 10 16 0.00 0.00
7:55 am 07:55 Mostly Cloudy 36 2 30 -1 81 81 Calm 30.31 1026 10 16 0.00 0.00
8:45 am 08:45 Mostly Sunny 37 3 34 1 87 87 Calm 30.33 1027 10 16 0.00 0.00
9:50 am 09:50 Mostly Sunny 43 6 36 2 76 76 SE 8 13 30.32 1027 10 16 0.00 0.00
10:45 am 10:45 Mostly Sunny 48 9 36 2 62 62 SSE 6 9 30.31 1026 10 16 0.00 0.00
11:50 am 11:50 Mostly Sunny 54 12 37 3 54 54 Calm 30.26 1025 10 16 0.00 0.00
12:47 pm 12:47 Mostly Sunny 57 14 43 6 59 59 SSW 12 19 30.21 1023 10 16 0.00 0.00
12:50 pm 12:50 Mostly Sunny 57 14 43 6 59 59 SSW 12 19 30.21 1023 10 16 0.00 0.00
1:45 pm 13:45 Partly Cloudy 57 14 43 6 59 59 S 12 19 30.17 1022 10 16 0.00 0.00
2:45 pm 14:45 Mostly Cloudy 57 14 45 7 63 63 S 9 15 30.13 1020 10 16 0.00 0.00
3:55 pm 15:55 Partly Cloudy 57 14 45 7 63 63 SSW 14 22 30.12 1020 10 16 0.00 0.00
4:45 pm 16:45 Partly Cloudy 57 14 45 7 63 63 SSW 14 22 30.11 1020 10 16 0.00 0.00
5:45 pm 17:45 Mostly Clear 54 12 45 7 72 72 S 6 9 30.09 1019 10 16 0.00 0.00
6:55 pm 18:55 Partly Cloudy 46 8 45 7 93 93 S 6 9 30.08 1019 10 16 0.00 0.00
7:50 pm 19:50 Partly Cloudy 48 9 46 8 94 94 SSE 8 13 30.08 1019 10 16 0.00 0.00
8:45 pm 20:45 Partly Cloudy 50 10 48 9 94 94 SSE 8 13 30.07 1018 10 16 0.00 0.00
9:55 pm 21:55 Cloudy 54 12 50 10 88 88 SSE 9 15 30.06 1018 10 16 0.00 0.00
10:15 pm 22:15 Cloudy 54 12.1 50 10 87 87 SSE 9 15 30.06 1018 10 16 0.00 0.00
10:35 pm 22:35 Cloudy 54 12.1 50 10.1 88 88 SSE 8 13 30.06 1018 10 16 0.00 0.00
10:55 pm 22:55 Cloudy 54 12.4 51 10.3 87 87 SSE 7 11 30.05 1018 10 16 0.00 0.00
11:15 pm 23:15 Cloudy 55 12.5 51 10.4 87 87 SSE 7 11 30.05 1018 10 16 0.00 0.00
11:35 pm 23:35 Cloudy 55 12.6 51 10.5 87 87 S 7 11 30.04 1017 10 16 0.00 0.00
11:55 pm 23:55 Cloudy 56 13.1 51 10.6 85 85 S 8 13 30.03 1017 10 16 0.00 0.00

Powered by AerisWeather